Regional Weather Roundup
Issued by NWS Midland/Odessa, TX

Skip options and go directly to product.
Home | Oldest Version | Previous Version | Current Version | All | Graphics & Text | Save Text | Print | Product List | Glossary On

Skip product version selection by date and time.   
085
ASUS44 KMAF 040810
RWRMAF
MIDLAND AREA WEATHER ROUNDUP
NATIONAL WEATHER SERVICE MIDLAND TX
200 AM CST WED MAR 04 2015

...IN SOUTHWEST TEXAS AND SOUTHEAST NEW MEXICO...

CITY           SKY/WX    TMP DP  RH WIND       PRES   REMARKS
ALPINE         CLOUDY    49  46  89 CALM      29.95S
ANDREWS        CLOUDY    50  47  92 MISG      29.85F
ARTESIA        CLOUDY    48  46  93 S9        29.84R
BIG SPRING     CLOUDY    54  49  85 CALM      29.87R
CARLSBAD       CLOUDY    54  43  66 S13       29.81F
DRYDEN           N/A     53  50  89 CALM      29.83R
FORT STOCKTON  CLOUDY    51  47  86 W9        29.85S
GUAD PASS      NOT AVBL
HOBBS          MOCLDY    50  50 100 SW8       29.87S
MARFA          CLOUDY    52  45  76 NW6       29.91F
MIDLAND AIRPK  CLOUDY    50  47  89 CALM      29.85S
MIDLAND INTL   CLOUDY    49  47  93 CALM      29.84F
ODESSA         CLOUDY    49  45  86 N3        29.85S
PECOS          LGT RAIN  50  47  87 S3        29.87R
PRESIDIO       CLOUDY    63  48  58 CALM      29.82F
SEMINOLE       CLOUDY    49  46  90 W6        29.87R
SNYDER         CLOUDY    51  48  91 SW3       29.84F
WINK           MOCLDY    50  45  83 W7        29.85S
$$
...OTHER STATIONS IN TEXAS...

CITY           SKY/WX    TMP DP  RH WIND       PRES   REMARKS
ABILENE        CLOUDY    50  48  93 SW5       29.85R
AMARILLO       CLOUDY    35  31  85 NE16      29.90R WCI  25
AUSTIN         FOG       57  57 100 CALM      29.83F VSB 1/4
BROWNSVILLE    CLOUDY    71  68  90 SE14G24   29.80F
CORPUS CHRISTI FOG       68  68 100 SE15      29.82F VSB 3/4
DALLAS FTW     CLOUDY    51  51 100 SE5       29.84F FOG
DEL RIO        CLOUDY    57  53  86 N5        29.83F
EL PASO        CLOUDY    54  43  66 S12       29.83F
HOUSTON INT    CLOUDY    70  68  93 S8        29.87F
LUBBOCK        CLOUDY    50  44  80 SE6       29.81S
SAN ANGELO     CLOUDY    53  50  89 S5        29.84S
SAN ANTONIO    DRZL/FOG  60  59  96 CALM      29.83F VSB 1/16
WACO           FOG       56  55  97 CALM      29.83F VSB 1/4
WICHITA FALLS  NOT AVBL
$$
...OTHER LOCATIONS IN NEW MEXICO...

CITY           SKY/WX    TMP DP  RH WIND       PRES   REMARKS
ALAMAGORDO     PTCLDY    50  43  76 S9G22     29.85S
ALBUQUERQUE    PTCLDY    39  27  62 N8        29.88S WCI  33
CANNON AFB     CLOUDY    44  40  87 W6        29.83R
CLOVIS         CLOUDY    43  39  87 SW8       29.82S WCI  38
HOLLOMAN AFB   PTCLDY    48  43  85 SW10      29.83S
ROSWELL        CLOUDY    48  41  76 W3        29.82F
RUIDOSO        PTCLDY    37  27  65 W7        29.88S WCI  32
SANTA FE       CLEAR     31  20  63 CALM      29.86S
TRUTH OR CONSE CLEAR     40  26  57 W7        29.85R WCI  35
TUCUMCARI      CLOUDY    34  31  88 NE17      29.89R WCI  23
$$

USA.gov is the U.S. government's official web portal to all federal, state and local government web resources and services.